User: anonymous   Login
Location: Observatoire de Paris
(48.8363°N, 2.3365°E)
Time: 04:56:57
(UTC+01:00)
Language:

Transit 2A Rocket - Orbit

View from above orbital plane
View from above orbital plane
View from above satellite
View from above satellite

Ground track
Ground track

The orbit data is extracted from the following two-line orbital elements,

1 00047U 60007C   21212.53050125  .00000029  00000-0  31491-4 0  9996
2 00047  66.6660 141.1488 0227246   2.0220 358.1747 14.42163388193669
Epoch (UTC): 31 July 2021 12:43:55
Eccentricity: 0.0227246
inclination: 66.6660°
perigee height: 589 km
apogee height: 913 km
right ascension of ascending node: 141.1488°
argument of perigee: 2.0220°
revolutions per day: 14.42163388
mean anomaly at epoch: 358.1747°
orbit number at epoch: 19366

The dashed part of the orbit path shows where the satellite is in the earth's shadow,  

DLR